STARLINK-34470, 64703

Orbit data source: Space-Track

STARLINK-34470, 64703 is a payload satellite owned by SpaceX/Seattle (US) in LEO that was launched on Sat, 28 Jun 2025 UTC via an FALCON 9 launch vehicle from the Air Force Western Test Range (AFWTR). Payload-class satellites include a variety of spacecraft equipped with specific instruments for various scientific and technological missions. These include communications satellites like Starlink; space stations such as the ISS; scientific satellites like the Hubble; Earth observation satellites from companies like Planet Labs, Umbra, and HawkEye 360; GPS; miniature CubeSats for education and research; and military/defense satellites.

Loading next visibility...
Identifier
64703, 2025-142H
Orbit
LEO
Country
Flag of USUS
Related business
Manufacturer
SpaceX/Seattle
Mission
Operational Commercial Communications
Bus & Motor
STARLINK V2MO, Unknown motor
Mass
575 kg wet, ~530 kg dry
Launch date (UTC)
2025-06-28 (2 months ago)
Launch vehicle
FALCON 9
Launch site
Air Force Western Test Range (AFWTR)
Object type
Payload
Rocket body
Debris
Shape & HBR
Box + 1 Pan, 14.5 m
Radar Cross Section
41.120 m², Large (>1 m²)

Expand to show TLE details & history
Last TLE update: 19 hours ago

TLE from 19 hours ago
0 STARLINK-34470
1 64703U 25142H   25242.26334569  .00056233  00000-0  12772-2 0  9997
2 64703  70.0021  79.2400 0003406 269.4479  90.6312 15.42732721 10734
Epoch: 2025-08-30T06:19Z
TLE epoch observation values (Epoch: 2025-08-30T06:19:13.067Z)
Latitude
-0.00009°
Longitude
5.73537°
Altitude
440.546 km
Speed
7.648 km/s
True Right ascension
05h 16m 57s
True Declination
0° 00' 00"
Sunlit
Object was in daylight at epoch
Visualization orbit readout
Latitude
Unknown
Longitude
Unknown
Altitude
Unknown
Speed
Unknown
Apparent Right ascension
Unknown
Apparent Declination
Unknown
Sunlit
N/A
Visualization observer readout
Local Sidereal Time
16:44:05
Azimuth
Unknown
Elevation
Unknown
Doppler factor
Unknown
Orbital elements
Apogee altitude
438.277 km
Perigee altitude
433.635 km
Semi-major axis
6,814.093 km
Eccentricity
0.00034
Inclination
70.0021°
RAAN
79.24°
Arg. of periapsis
269.4479°
True anomaly
90.67023°
Mean anomaly
90.6312°
Eccentric anomaly
90.65071°
Mean motion
3.85861 °/min
Orbital period
93.3 mins
BSTAR
0.0012772
Loading maneuver chart data...
Computing Atmospheric mass density...
Loading historical data...
Loading historical data...
Loading historical data...
Loading historical data...
Loading historical data...
Loading historical data...
Loading historical data...

Documentation

Showing up to 5 results
|